Date String (YYYY-MM-DD hh:mm:ss) UTC,Instrument flags,absolute air pressure of the measurement (hPa),sample flow rate (lpm),inlet stack bypass flow (lpm),air temperature of the measurement (°C),ambient temperature measured by the external sensor (°C),aerosol sample conditioner tube jacket temperature (°C),OPC LED temperature (°C),internal box temperature (°C),relative humidity of the measurement (%),span deviation,mass concentration of particles derived from Lorenz-Mie calculation of OPC scattering (μg/m³),mass concentration of particles derived from Lorenz-Mie calculation of OPC scattering (μg/m³),mass concentration of particles derived from Lorenz-Mie calculation of OPC scattering (μg/m³)
DateTimeUTC,F1_M11,P_M11,Q1_M11,Q2_M11,T1_M11,T2_M11,T3_M11,T4_M11,T5_M11,U1_M11,ZSPAN_M11,X0_M11,X2_M11,X1_M11
2024-03-31 13:00:00,SystemResetWarning,0819.2,4.99,000.00,020.9,020.2,000.0,029.5,022.7,25.4,0000.4,0012.73,0006.46,0005.94
2024-03-31 13:01:00,SystemResetWarning,0819.2,4.99,000.00,020.9,020.2,000.0,029.5,022.7,25.4,0000.5,0012.83,0006.46,0005.97
2024-03-31 13:02:00,SystemResetWarning,0819.2,4.99,000.00,020.9,020.2,000.0,029.5,022.7,25.5,0000.2,0013.05,0006.51,0005.99
2024-03-31 13:03:00,SystemResetWarning,0819.3,5.00,000.00,020.9,020.2,000.0,029.5,022.7,25.5,0000.6,0013.72,0006.55,0006.03
2024-03-31 13:04:00,SystemResetWarning,0819.3,5.01,000.00,020.9,020.2,000.0,029.5,022.7,25.6,0000.6,0013.73,0006.59,0006.06
2024-03-31 13:05:00,SystemResetWarning,0819.4,5.00,000.00,020.9,020.2,000.0,029.5,022.7,25.7,0000.5,0013.68,0006.65,0006.09
2024-03-31 13:06:00,SystemResetWarning,0819.3,4.99,000.00,020.9,020.2,000.0,029.5,022.7,25.8,0000.6,0013.35,0006.69,0006.13
2024-03-31 13:07:00,SystemResetWarning,0819.4,4.99,000.00,020.9,020.2,000.0,029.5,022.7,25.9,0000.0,0012.64,0006.72,0006.16
2024-03-31 13:08:00,SystemResetWarning,0819.3,4.99,000.00,020.9,020.2,000.0,029.5,022.7,25.8,0000.0,0012.35,0006.75,0006.16
2024-03-31 13:09:00,SystemResetWarning,0819.4,5.01,000.00,020.9,020.2,000.0,029.5,022.7,25.8,0000.4,0012.49,0006.77,0006.18
2024-03-31 13:10:00,SystemResetWarning,0819.4,5.01,000.00,020.9,020.2,000.0,029.5,022.7,25.6,0000.5,0013.27,0006.77,0006.20
2024-03-31 13:11:00,SystemResetWarning,0819.3,5.01,000.00,020.9,020.1,000.0,029.5,022.7,25.4,0000.6,0013.05,0006.81,0006.23
2024-03-31 13:12:00,SystemResetWarning,0819.4,4.99,000.00,020.8,020.1,000.0,029.5,022.7,25.2,0000.4,0013.15,0006.84,0006.25
2024-03-31 13:13:00,SystemResetWarning,0819.5,4.99,000.00,020.8,020.1,000.0,029.5,022.7,25.2,0000.5,0013.37,0006.87,0006.26
2024-03-31 13:14:00,SystemResetWarning,0819.4,5.01,000.00,020.8,020.1,000.0,029.5,022.7,25.2,0000.4,0012.85,0006.88,0006.27
2024-03-31 13:15:00,SystemResetWarning,0819.3,5.01,000.00,020.8,020.1,000.0,029.5,022.7,25.2,0000.1,0013.21,0006.90,0006.28
2024-03-31 13:16:00,SystemResetWarning,0819.3,5.00,000.00,020.8,020.1,000.0,029.5,022.6,25.1,-000.1,0013.25,0006.88,0006.28
2024-03-31 13:17:00,SystemResetWarning,0819.3,4.99,000.00,020.8,020.1,000.0,029.4,022.6,25.1,0000.1,0013.57,0006.93,0006.29
2024-03-31 13:18:00,SystemResetWarning,0819.3,4.99,000.00,020.8,020.1,000.0,029.4,022.6,25.1,0001.0,0013.59,0006.95,0006.29
2024-03-31 13:19:00,SystemResetWarning,0819.2,5.02,000.00,020.8,020.1,000.0,029.4,022.6,25.1,0001.0,0013.55,0006.96,0006.31
2024-03-31 13:20:00,SystemResetWarning,0819.3,5.00,000.00,020.8,020.1,000.0,029.4,022.6,25.0,0000.7,0013.06,0006.94,0006.33
2024-03-31 13:21:00,SystemResetWarning,0819.3,4.98,000.00,020.8,020.1,000.0,029.4,022.6,25.1,0000.6,0012.55,0006.92,0006.33
2024-03-31 13:22:00,SystemResetWarning,0819.3,5.00,000.00,020.8,020.1,000.0,029.4,022.6,24.9,0000.6,0011.68,0006.88,0006.32
2024-03-31 13:23:00,SystemResetWarning,0819.3,5.01,000.00,020.8,020.1,000.0,029.4,022.6,25.0,0000.1,0011.32,0006.88,0006.32
2024-03-31 13:24:00,SystemResetWarning,0819.2,5.01,000.00,020.8,020.1,000.0,029.4,022.6,24.9,0000.0,0011.06,0006.86,0006.34
2024-03-31 13:25:00,SystemResetWarning,0819.2,5.00,000.00,020.8,020.1,000.0,029.4,022.6,24.9,-000.2,0010.86,0006.86,0006.35
2024-03-31 13:26:00,SystemResetWarning,0819.2,5.00,000.00,020.8,020.1,000.0,029.4,022.6,24.8,-000.0,0010.64,0006.87,0006.36
2024-03-31 13:27:00,SystemResetWarning,0819.3,5.00,000.00,020.8,020.1,000.0,029.4,022.6,24.7,-000.1,0011.23,0006.90,0006.38
2024-03-31 13:28:00,SystemResetWarning,0819.3,5.00,000.00,020.8,020.1,000.0,029.4,022.6,24.8,-000.3,0011.00,0006.88,0006.40
2024-03-31 13:29:00,SystemResetWarning,0819.3,5.00,000.00,020.8,020.1,000.0,029.4,022.6,24.8,-000.8,0011.02,0006.91,0006.42
2024-03-31 13:30:00,SystemResetWarning,0819.3,5.00,000.00,020.8,020.0,000.0,029.4,022.6,24.8,-000.8,0011.07,0006.95,0006.44
2024-03-31 13:31:00,SystemResetWarning,0819.3,5.02,000.00,020.8,020.0,000.0,029.4,022.6,24.8,-000.8,0011.07,0006.98,0006.45
2024-03-31 13:32:00,SystemResetWarning,0819.3,5.00,000.00,020.8,020.0,000.0,029.4,022.6,24.8,-000.8,0011.69,0007.02,0006.48
2024-03-31 13:33:00,SystemResetWarning,0819.3,4.99,000.00,020.8,020.0,000.0,029.4,022.6,24.8,-001.0,0011.99,0007.04,0006.50
2024-03-31 13:34:00,SystemResetWarning,0819.3,4.99,000.00,020.7,020.0,000.0,029.4,022.5,24.9,-001.0,0012.26,0007.02,0006.51
2024-03-31 13:35:00,SystemResetWarning,0819.3,5.01,000.00,020.7,020.0,000.0,029.4,022.5,24.9,-001.0,0012.30,0007.03,0006.51
2024-03-31 13:36:00,SystemResetWarning,0819.4,5.00,000.00,020.7,020.0,000.0,029.4,022.5,24.9,-000.7,0012.32,0007.03,0006.52
2024-03-31 13:37:00,SystemResetWarning,0819.3,5.01,000.00,020.7,019.9,000.0,029.4,022.5,24.8,-000.8,0012.32,0007.04,0006.54
2024-03-31 13:38:00,SystemResetWarning,0819.3,5.00,000.00,020.7,019.9,000.0,029.3,022.5,24.8,-000.6,0011.71,0007.04,0006.54
2024-03-31 13:39:00,SystemResetWarning,0819.4,5.00,000.00,020.7,019.9,000.0,029.3,022.5,24.8,-000.4,0012.08,0007.05,0006.55
2024-03-31 13:40:00,SystemResetWarning,0819.5,5.00,000.00,020.7,019.9,000.0,029.3,022.5,24.7,-000.3,0012.97,0007.06,0006.56
2024-03-31 13:41:00,SystemResetWarning,0819.7,4.99,000.00,020.7,019.8,000.0,029.3,022.5,24.7,-000.4,0013.02,0007.03,0006.56
2024-03-31 13:42:00,SystemResetWarning,0819.3,5.00,000.00,020.7,019.8,000.0,029.3,022.5,24.6,-000.1,0013.16,0007.06,0006.57
2024-03-31 13:43:00,SystemResetWarning,0819.5,5.01,000.00,020.6,019.8,000.0,029.3,022.4,24.6,-000.2,0012.99,0007.07,0006.58
2024-03-31 13:44:00,SystemResetWarning,0819.5,5.01,000.00,020.6,019.8,000.0,029.3,022.4,24.5,0000.0,0013.29,0007.11,0006.60
2024-03-31 13:45:00,SystemResetWarning,0819.4,4.99,000.00,020.6,019.8,000.0,029.3,022.4,24.6,0000.4,0013.17,0007.14,0006.62
2024-03-31 13:46:00,SystemResetWarning,0819.4,4.99,000.00,020.6,019.8,000.0,029.3,022.4,24.6,0000.7,0013.31,0007.20,0006.66
2024-03-31 13:47:00,SystemResetWarning,0819.4,5.00,000.00,020.6,019.7,000.0,029.3,022.4,24.4,0001.1,0013.49,0007.26,0006.69
2024-03-31 13:48:00,SystemResetWarning,0819.5,5.01,000.00,020.6,019.7,000.0,029.3,022.4,24.2,0001.3,0013.50,0007.29,0006.71
2024-03-31 13:49:00,SystemResetWarning,0819.4,5.00,000.00,020.6,019.7,000.0,029.3,022.4,24.2,0001.6,0013.69,0007.37,0006.76
2024-03-31 13:50:00,SystemResetWarning,0819.4,5.00,000.00,020.6,019.7,000.0,029.3,022.4,24.2,0001.3,0013.63,0007.39,0006.78
2024-03-31 13:51:00,SystemResetWarning,0819.4,4.99,000.00,020.6,019.6,000.0,029.2,022.4,24.3,0001.4,0013.58,0007.45,0006.82
2024-03-31 13:52:00,SystemResetWarning,0819.4,5.00,000.00,020.6,019.6,000.0,029.2,022.3,24.2,0001.5,0014.19,0007.51,0006.87
2024-03-31 13:53:00,SystemResetWarning,0819.4,5.00,000.00,020.5,019.6,000.0,029.2,022.3,24.2,0001.3,0014.49,0007.58,0006.92
2024-03-31 13:54:00,SystemResetWarning,0819.4,5.00,000.00,020.5,019.6,000.0,029.2,022.3,24.1,0001.4,0014.59,0007.64,0006.96
2024-03-31 13:55:00,SystemResetWarning,0819.4,4.99,000.00,020.5,019.6,000.0,029.2,022.3,24.1,0001.3,0014.03,0007.66,0006.98
2024-03-31 13:56:00,SystemResetWarning,0819.4,5.00,000.00,020.5,019.6,000.0,029.2,022.3,24.1,0001.1,0014.51,0007.70,0007.01
2024-03-31 13:57:00,SystemResetWarning,0819.5,5.01,000.00,020.5,019.6,000.0,029.2,022.3,24.2,0001.0,0014.96,0007.72,0007.03
2024-03-31 13:58:00,SystemResetWarning,0819.3,5.01,000.00,020.5,019.6,000.0,029.2,022.3,24.2,0000.7,0015.54,0007.75,0007.05
2024-03-31 13:59:00,SystemResetWarning,0819.4,4.99,000.00,020.5,019.6,000.0,029.2,022.3,24.1,0000.5,0016.01,0007.76,0007.07
